iso_date,epoch_date,Year,Hour,Min,DOY,POS_DOY,Lat,Lon,BP,Ts,Ta,has_bp,has_ts,has_ta,BuoyID,Buoy_Type,Buoy_Owner,Logistics,Hemisphere
2020-09-05T18:00:00Z,1599328800,2020,18,0,249.75,249.75,62.57,-51.21,-999.00,4.88,-999.0,no,yes,no,300234068342460,SVPGHI,AOML,MARIA_S._MERI,North
2020-09-05T19:00:02Z,1599332403,2020,19,0,249.7917,249.7917,62.577,-51.239,-999.00,4.93,-999.0,no,yes,no,300234068342460,SVPGHI,AOML,MARIA_S._MERI,North
2020-09-05T20:01:58Z,1599336118,2020,20,2,249.8347,249.8347,62.59,-51.272,-999.00,4.97,-999.0,no,yes,no,300234068342460,SVPGHI,AOML,MARIA_S._MERI,North
2020-09-05T21:01:00Z,1599339660,2020,21,1,249.8757,249.8757,62.6,-51.304,-999.00,4.98,-999.0,no,yes,no,300234068342460,SVPGHI,AOML,MARIA_S._MERI,North
2020-09-05T22:00:02Z,1599343203,2020,22,0,249.9167,249.9167,62.617,-51.335,-999.00,5.05,-999.0,no,yes,no,300234068342460,SVPGHI,AOML,MARIA_S._MERI,North
2020-09-05T23:03:59Z,1599347039,2020,23,4,249.9611,249.9611,62.637,-51.361,-999.00,5.08,-999.0,no,yes,no,300234068342460,SVPGHI,AOML,MARIA_S._MERI,North
2020-09-06T00:01:00Z,1599350460,2020,0,1,250.0007,250.0007,62.652,-51.366,-999.00,5.05,-999.0,no,yes,no,300234068342460,SVPGHI,AOML,MARIA_S._MERI,North
2020-09-06T01:00:02Z,1599354003,2020,1,0,250.0417,250.0417,62.663,-51.367,-999.00,4.99,-999.0,no,yes,no,300234068342460,SVPGHI,AOML,MARIA_S._MERI,North
2020-09-06T01:59:57Z,1599357597,2020,2,0,250.0833,250.0833,62.671,-51.366,-999.00,4.95,-999.0,no,yes,no,300234068342460,SVPGHI,AOML,MARIA_S._MERI,North
2020-09-06T03:04:01Z,1599361442,2020,3,4,250.1278,250.1278,62.676,-51.371,-999.00,4.92,-999.0,no,yes,no,300234068342460,SVPGHI,AOML,MARIA_S._MERI,North
2020-09-06T04:03:56Z,1599365036,2020,4,4,250.1694,250.1694,-90.0,-180.0,-999.00,4.91,-999.0,no,yes,no,300234068342460,SVPGHI,AOML,MARIA_S._MERI,North
2020-09-06T05:03:59Z,1599368639,2020,5,4,250.2111,250.2111,-90.0,-180.0,-999.00,4.91,-999.0,no,yes,no,300234068342460,SVPGHI,AOML,MARIA_S._MERI,North
2020-09-06T06:04:01Z,1599372242,2020,6,4,250.2528,250.2528,-90.0,-180.0,-999.00,4.89,-999.0,no,yes,no,300234068342460,SVPGHI,AOML,MARIA_S._MERI,North
2020-09-06T07:01:03Z,1599375663,2020,7,1,250.2924,250.2924,62.703,-51.419,-999.00,4.89,-999.0,no,yes,no,300234068342460,SVPGHI,AOML,MARIA_S._MERI,North
2020-09-06T07:59:57Z,1599379197,2020,8,0,250.3333,250.3333,62.716,-51.43,-999.00,4.9,-999.0,no,yes,no,300234068342460,SVPGHI,AOML,MARIA_S._MERI,North
2020-09-06T09:00:00Z,1599382800,2020,9,0,250.375,250.375,62.731,-51.438,-999.00,4.91,-999.0,no,yes,no,300234068342460,SVPGHI,AOML,MARIA_S._MERI,North
2020-09-06T10:01:03Z,1599386463,2020,10,1,250.4174,250.4174,62.746,-51.44,-999.00,4.91,-999.0,no,yes,no,300234068342460,SVPGHI,AOML,MARIA_S._MERI,North
2020-09-06T11:00:57Z,1599390058,2020,11,1,250.459,250.459,62.757,-51.437,-999.00,4.89,-999.0,no,yes,no,300234068342460,SVPGHI,AOML,MARIA_S._MERI,North
2020-09-06T12:00:00Z,1599393600,2020,12,0,250.5,250.5,62.766,-51.434,-999.00,4.88,-999.0,no,yes,no,300234068342460,SVPGHI,AOML,MARIA_S._MERI,North
2020-09-06T13:00:02Z,1599397203,2020,13,0,250.5417,250.5417,62.774,-51.424,-999.00,4.9,-999.0,no,yes,no,300234068342460,SVPGHI,AOML,MARIA_S._MERI,North
2020-09-06T13:59:57Z,1599400797,2020,14,0,250.5833,250.5833,62.778,-51.413,-999.00,4.91,-999.0,no,yes,no,300234068342460,SVPGHI,AOML,MARIA_S._MERI,North
2020-09-06T15:00:00Z,1599404400,2020,15,0,250.625,250.625,62.779,-51.401,-999.00,4.95,-999.0,no,yes,no,300234068342460,SVPGHI,AOML,MARIA_S._MERI,North
2020-09-06T16:03:56Z,1599408236,2020,16,4,250.6694,250.6694,62.778,-51.392,-999.00,5.04,-999.0,no,yes,no,300234068342460,SVPGHI,AOML,MARIA_S._MERI,North
2020-09-06T16:59:57Z,1599411597,2020,17,0,250.7083,250.7083,62.775,-51.391,-999.00,5.16,-999.0,no,yes,no,300234068342460,SVPGHI,AOML,MARIA_S._MERI,North
2020-09-06T18:00:00Z,1599415200,2020,18,0,250.75,250.75,62.773,-51.396,-999.00,5.44,-999.0,no,yes,no,300234068342460,SVPGHI,AOML,MARIA_S._MERI,North
2020-09-06T19:00:02Z,1599418803,2020,19,0,250.7917,250.7917,62.774,-51.406,-999.00,5.51,-999.0,no,yes,no,300234068342460,SVPGHI,AOML,MARIA_S._MERI,North
2020-09-06T19:59:57Z,1599422397,2020,20,0,250.8333,250.8333,62.777,-51.415,-999.00,5.38,-999.0,no,yes,no,300234068342460,SVPGHI,AOML,MARIA_S._MERI,North
2020-09-06T21:00:00Z,1599426000,2020,21,0,250.875,250.875,62.782,-51.428,-999.00,5.32,-999.0,no,yes,no,300234068342460,SVPGHI,AOML,MARIA_S._MERI,North
2020-09-06T22:00:02Z,1599429603,2020,22,0,250.9167,250.9167,62.791,-51.441,-999.00,4.6,-999.0,no,yes,no,300234068342460,SVPGHI,AOML,MARIA_S._MERI,North
2020-09-06T22:59:57Z,1599433197,2020,23,0,250.9583,250.9583,62.8,-51.449,-999.00,4.61,-999.0,no,yes,no,300234068342460,SVPGHI,AOML,MARIA_S._MERI,North
2020-09-07T00:01:00Z,1599436860,2020,0,1,251.0007,251.0007,62.807,-51.446,-999.00,4.69,-999.0,no,yes,no,300234068342460,SVPGHI,AOML,MARIA_S._MERI,North
2020-09-07T01:00:02Z,1599440403,2020,1,0,251.0417,251.0417,62.811,-51.44,-999.00,4.56,-999.0,no,yes,no,300234068342460,SVPGHI,AOML,MARIA_S._MERI,North
2020-09-07T01:59:57Z,1599443997,2020,2,0,251.0833,251.0833,62.812,-51.432,-999.00,4.65,-999.0,no,yes,no,300234068342460,SVPGHI,AOML,MARIA_S._MERI,North
2020-09-07T03:00:00Z,1599447600,2020,3,0,251.125,251.125,62.81,-51.424,-999.00,4.6,-999.0,no,yes,no,300234068342460,SVPGHI,AOML,MARIA_S._MERI,North
2020-09-07T04:02:03Z,1599451324,2020,4,2,251.1681,251.1681,62.807,-51.418,-999.00,4.53,-999.0,no,yes,no,300234068342460,SVPGHI,AOML,MARIA_S._MERI,North
2020-09-07T05:03:59Z,1599455039,2020,5,4,251.2111,251.2111,-90.0,-180.0,-999.00,4.52,-999.0,no,yes,no,300234068342460,SVPGHI,AOML,MARIA_S._MERI,North
2020-09-07T06:03:01Z,1599458581,2020,6,3,251.2521,251.2521,62.803,-51.424,-999.00,4.49,-999.0,no,yes,no,300234068342460,SVPGHI,AOML,MARIA_S._MERI,North
2020-09-07T07:00:02Z,1599462003,2020,7,0,251.2917,251.2917,62.804,-51.437,-999.00,4.45,-999.0,no,yes,no,300234068342460,SVPGHI,AOML,MARIA_S._MERI,North
2020-09-07T07:59:57Z,1599465597,2020,8,0,251.3333,251.3333,62.81,-51.455,-999.00,4.43,-999.0,no,yes,no,300234068342460,SVPGHI,AOML,MARIA_S._MERI,North
2020-09-07T09:00:00Z,1599469200,2020,9,0,251.375,251.375,62.818,-51.472,-999.00,4.46,-999.0,no,yes,no,300234068342460,SVPGHI,AOML,MARIA_S._MERI,North
2020-09-07T10:01:03Z,1599472863,2020,10,1,251.4174,251.4174,62.828,-51.485,-999.00,4.46,-999.0,no,yes,no,300234068342460,SVPGHI,AOML,MARIA_S._MERI,North
2020-09-07T10:59:57Z,1599476397,2020,11,0,251.4583,251.4583,62.838,-51.497,-999.00,4.48,-999.0,no,yes,no,300234068342460,SVPGHI,AOML,MARIA_S._MERI,North
2020-09-07T12:00:00Z,1599480000,2020,12,0,251.5,251.5,62.846,-51.499,-999.00,4.5,-999.0,no,yes,no,300234068342460,SVPGHI,AOML,MARIA_S._MERI,North
2020-09-07T13:02:03Z,1599483724,2020,13,2,251.5431,251.5431,62.854,-51.501,-999.00,4.53,-999.0,no,yes,no,300234068342460,SVPGHI,AOML,MARIA_S._MERI,North
2020-09-07T14:00:57Z,1599487258,2020,14,1,251.584,251.584,62.856,-51.499,-999.00,4.57,-999.0,no,yes,no,300234068342460,SVPGHI,AOML,MARIA_S._MERI,North
2020-09-07T15:00:00Z,1599490800,2020,15,0,251.625,251.625,62.856,-51.498,-999.00,4.59,-999.0,no,yes,no,300234068342460,SVPGHI,AOML,MARIA_S._MERI,North
2020-09-07T16:00:02Z,1599494403,2020,16,0,251.6667,251.6667,62.854,-51.497,-999.00,4.62,-999.0,no,yes,no,300234068342460,SVPGHI,AOML,MARIA_S._MERI,North
2020-09-07T16:59:57Z,1599497997,2020,17,0,251.7083,251.7083,62.852,-51.498,-999.00,4.66,-999.0,no,yes,no,300234068342460,SVPGHI,AOML,MARIA_S._MERI,North
2020-09-07T18:01:00Z,1599501660,2020,18,1,251.7507,251.7507,62.85,-51.502,-999.00,4.68,-999.0,no,yes,no,300234068342460,SVPGHI,AOML,MARIA_S._MERI,North
2020-09-07T19:02:03Z,1599505324,2020,19,2,251.7931,251.7931,62.849,-51.505,-999.00,4.69,-999.0,no,yes,no,300234068342460,SVPGHI,AOML,MARIA_S._MERI,North
2020-09-07T20:00:57Z,1599508858,2020,20,1,251.834,251.834,62.848,-51.513,-999.00,4.62,-999.0,no,yes,no,300234068342460,SVPGHI,AOML,MARIA_S._MERI,North
2020-09-07T21:00:00Z,1599512400,2020,21,0,251.875,251.875,62.848,-51.534,-999.00,4.65,-999.0,no,yes,no,300234068342460,SVPGHI,AOML,MARIA_S._MERI,North
2020-09-07T22:02:03Z,1599516124,2020,22,2,251.9181,251.9181,62.854,-51.55,-999.00,4.67,-999.0,no,yes,no,300234068342460,SVPGHI,AOML,MARIA_S._MERI,North
2020-09-07T22:59:57Z,1599519597,2020,23,0,251.9583,251.9583,62.857,-51.562,-999.00,4.68,-999.0,no,yes,no,300234068342460,SVPGHI,AOML,MARIA_S._MERI,North
2020-09-08T00:00:00Z,1599523200,2020,0,0,252.0,252.0,62.861,-51.574,-999.00,4.66,-999.0,no,yes,no,300234068342460,SVPGHI,AOML,MARIA_S._MERI,North
2020-09-08T01:00:02Z,1599526803,2020,1,0,252.0417,252.0417,62.868,-51.584,-999.00,4.7,-999.0,no,yes,no,300234068342460,SVPGHI,AOML,MARIA_S._MERI,North
2020-09-08T01:59:57Z,1599530397,2020,2,0,252.0833,252.0833,62.876,-51.591,-999.00,4.63,-999.0,no,yes,no,300234068342460,SVPGHI,AOML,MARIA_S._MERI,North
2020-09-08T03:00:00Z,1599534000,2020,3,0,252.125,252.125,62.885,-51.593,-999.00,4.67,-999.0,no,yes,no,300234068342460,SVPGHI,AOML,MARIA_S._MERI,North
2020-09-08T04:00:02Z,1599537603,2020,4,0,252.1667,252.1667,62.892,-51.589,-999.00,4.55,-999.0,no,yes,no,300234068342460,SVPGHI,AOML,MARIA_S._MERI,North
2020-09-08T04:59:57Z,1599541197,2020,5,0,252.2083,252.2083,62.897,-51.586,-999.00,4.52,-999.0,no,yes,no,300234068342460,SVPGHI,AOML,MARIA_S._MERI,North
2020-09-08T06:00:00Z,1599544800,2020,6,0,252.25,252.25,62.901,-51.579,-999.00,4.5,-999.0,no,yes,no,300234068342460,SVPGHI,AOML,MARIA_S._MERI,North
2020-09-08T07:00:02Z,1599548403,2020,7,0,252.2917,252.2917,62.907,-51.567,-999.00,4.53,-999.0,no,yes,no,300234068342460,SVPGHI,AOML,MARIA_S._MERI,North
2020-09-08T07:59:57Z,1599551997,2020,8,0,252.3333,252.3333,62.912,-51.555,-999.00,4.53,-999.0,no,yes,no,300234068342460,SVPGHI,AOML,MARIA_S._MERI,North
2020-09-08T09:00:00Z,1599555600,2020,9,0,252.375,252.375,62.917,-51.541,-999.00,4.33,-999.0,no,yes,no,300234068342460,SVPGHI,AOML,MARIA_S._MERI,North
2020-09-08T10:00:02Z,1599559203,2020,10,0,252.4167,252.4167,62.922,-51.528,-999.00,4.44,-999.0,no,yes,no,300234068342460,SVPGHI,AOML,MARIA_S._MERI,North
2020-09-08T10:59:57Z,1599562797,2020,11,0,252.4583,252.4583,62.926,-51.515,-999.00,4.49,-999.0,no,yes,no,300234068342460,SVPGHI,AOML,MARIA_S._MERI,North
2020-09-08T12:00:00Z,1599566400,2020,12,0,252.5,252.5,62.93,-51.504,-999.00,4.5,-999.0,no,yes,no,300234068342460,SVPGHI,AOML,MARIA_S._MERI,North
2020-09-08T13:00:02Z,1599570003,2020,13,0,252.5417,252.5417,62.935,-51.498,-999.00,4.43,-999.0,no,yes,no,300234068342460,SVPGHI,AOML,MARIA_S._MERI,North
2020-09-08T13:59:57Z,1599573597,2020,14,0,252.5833,252.5833,62.944,-51.5,-999.00,4.68,-999.0,no,yes,no,300234068342460,SVPGHI,AOML,MARIA_S._MERI,North
2020-09-08T15:00:00Z,1599577200,2020,15,0,252.625,252.625,62.953,-51.494,-999.00,4.71,-999.0,no,yes,no,300234068342460,SVPGHI,AOML,MARIA_S._MERI,North
2020-09-08T16:00:02Z,1599580803,2020,16,0,252.6667,252.6667,62.958,-51.479,-999.00,4.78,-999.0,no,yes,no,300234068342460,SVPGHI,AOML,MARIA_S._MERI,North
2020-09-08T16:59:57Z,1599584397,2020,17,0,252.7083,252.7083,62.962,-51.464,-999.00,4.8,-999.0,no,yes,no,300234068342460,SVPGHI,AOML,MARIA_S._MERI,North
2020-09-08T18:00:00Z,1599588000,2020,18,0,252.75,252.75,62.966,-51.452,-999.00,4.8,-999.0,no,yes,no,300234068342460,SVPGHI,AOML,MARIA_S._MERI,North
2020-09-08T19:00:02Z,1599591603,2020,19,0,252.7917,252.7917,62.967,-51.437,-999.00,4.79,-999.0,no,yes,no,300234068342460,SVPGHI,AOML,MARIA_S._MERI,North
2020-09-08T19:59:57Z,1599595197,2020,20,0,252.8333,252.8333,62.969,-51.422,-999.00,4.76,-999.0,no,yes,no,300234068342460,SVPGHI,AOML,MARIA_S._MERI,North
2020-09-08T21:00:00Z,1599598800,2020,21,0,252.875,252.875,62.969,-51.409,-999.00,4.75,-999.0,no,yes,no,300234068342460,SVPGHI,AOML,MARIA_S._MERI,North
2020-09-08T22:00:02Z,1599602403,2020,22,0,252.9167,252.9167,62.972,-51.403,-999.00,4.72,-999.0,no,yes,no,300234068342460,SVPGHI,AOML,MARIA_S._MERI,North
2020-09-08T23:00:57Z,1599606058,2020,23,1,252.959,252.959,62.974,-51.404,-999.00,4.7,-999.0,no,yes,no,300234068342460,SVPGHI,AOML,MARIA_S._MERI,North
2020-09-09T00:00:00Z,1599609600,2020,0,0,253.0,253.0,62.978,-51.41,-999.00,4.72,-999.0,no,yes,no,300234068342460,SVPGHI,AOML,MARIA_S._MERI,North
2020-09-09T01:00:02Z,1599613203,2020,1,0,253.0417,253.0417,62.983,-51.413,-999.00,4.74,-999.0,no,yes,no,300234068342460,SVPGHI,AOML,MARIA_S._MERI,North
2020-09-09T01:59:57Z,1599616797,2020,2,0,253.0833,253.0833,62.989,-51.411,-999.00,4.76,-999.0,no,yes,no,300234068342460,SVPGHI,AOML,MARIA_S._MERI,North
2020-09-09T03:00:00Z,1599620400,2020,3,0,253.125,253.125,62.995,-51.408,-999.00,4.78,-999.0,no,yes,no,300234068342460,SVPGHI,AOML,MARIA_S._MERI,North
2020-09-09T04:01:03Z,1599624063,2020,4,1,253.1674,253.1674,63.003,-51.407,-999.00,4.76,-999.0,no,yes,no,300234068342460,SVPGHI,AOML,MARIA_S._MERI,North
2020-09-09T04:59:57Z,1599627597,2020,5,0,253.2083,253.2083,63.011,-51.408,-999.00,4.76,-999.0,no,yes,no,300234068342460,SVPGHI,AOML,MARIA_S._MERI,North
2020-09-09T06:00:00Z,1599631200,2020,6,0,253.25,253.25,63.019,-51.404,-999.00,4.76,-999.0,no,yes,no,300234068342460,SVPGHI,AOML,MARIA_S._MERI,North
2020-09-09T07:00:02Z,1599634803,2020,7,0,253.2917,253.2917,63.028,-51.399,-999.00,4.74,-999.0,no,yes,no,300234068342460,SVPGHI,AOML,MARIA_S._MERI,North
2020-09-09T07:59:57Z,1599638397,2020,8,0,253.3333,253.3333,63.036,-51.39,-999.00,4.72,-999.0,no,yes,no,300234068342460,SVPGHI,AOML,MARIA_S._MERI,North
2020-09-09T09:00:00Z,1599642000,2020,9,0,253.375,253.375,63.042,-51.385,-999.00,4.66,-999.0,no,yes,no,300234068342460,SVPGHI,AOML,MARIA_S._MERI,North
2020-09-09T10:00:02Z,1599645603,2020,10,0,253.4167,253.4167,63.047,-51.392,-999.00,4.63,-999.0,no,yes,no,300234068342460,SVPGHI,AOML,MARIA_S._MERI,North
2020-09-09T10:59:57Z,1599649197,2020,11,0,253.4583,253.4583,63.052,-51.402,-999.00,4.62,-999.0,no,yes,no,300234068342460,SVPGHI,AOML,MARIA_S._MERI,North
2020-09-09T12:00:00Z,1599652800,2020,12,0,253.5,253.5,63.062,-51.416,-999.00,4.64,-999.0,no,yes,no,300234068342460,SVPGHI,AOML,MARIA_S._MERI,North
2020-09-09T13:01:03Z,1599656463,2020,13,1,253.5424,253.5424,63.068,-51.424,-999.00,4.7,-999.0,no,yes,no,300234068342460,SVPGHI,AOML,MARIA_S._MERI,North
2020-09-09T13:59:57Z,1599659997,2020,14,0,253.5833,253.5833,63.077,-51.438,-999.00,4.31,-999.0,no,yes,no,300234068342460,SVPGHI,AOML,MARIA_S._MERI,North
2020-09-09T15:00:00Z,1599663600,2020,15,0,253.625,253.625,63.085,-51.452,-999.00,4.39,-999.0,no,yes,no,300234068342460,SVPGHI,AOML,MARIA_S._MERI,North
2020-09-09T16:00:02Z,1599667203,2020,16,0,253.6667,253.6667,63.09,-51.457,-999.00,4.5,-999.0,no,yes,no,300234068342460,SVPGHI,AOML,MARIA_S._MERI,North
2020-09-09T16:59:57Z,1599670797,2020,17,0,253.7083,253.7083,63.097,-51.471,-999.00,4.48,-999.0,no,yes,no,300234068342460,SVPGHI,AOML,MARIA_S._MERI,North
2020-09-09T18:04:01Z,1599674642,2020,18,4,253.7528,253.7528,63.106,-51.484,-999.00,4.49,-999.0,no,yes,no,300234068342460,SVPGHI,AOML,MARIA_S._MERI,North
2020-09-09T19:01:03Z,1599678063,2020,19,1,253.7924,253.7924,63.113,-51.494,-999.00,4.48,-999.0,no,yes,no,300234068342460,SVPGHI,AOML,MARIA_S._MERI,North
2020-09-09T19:59:57Z,1599681597,2020,20,0,253.8333,253.8333,63.12,-51.503,-999.00,4.58,-999.0,no,yes,no,300234068342460,SVPGHI,AOML,MARIA_S._MERI,North
2020-09-09T21:00:00Z,1599685200,2020,21,0,253.875,253.875,63.129,-51.518,-999.00,4.56,-999.0,no,yes,no,300234068342460,SVPGHI,AOML,MARIA_S._MERI,North
2020-09-09T22:00:02Z,1599688803,2020,22,0,253.9167,253.9167,63.142,-51.534,-999.00,4.61,-999.0,no,yes,no,300234068342460,SVPGHI,AOML,MARIA_S._MERI,North
2020-09-10T01:00:02Z,1599699603,2020,1,0,254.0417,254.0417,63.178,-51.587,-999.00,4.65,-999.0,no,yes,no,300234068342460,SVPGHI,AOML,MARIA_S._MERI,North
2020-09-10T02:03:59Z,1599703439,2020,2,4,254.0861,254.0861,63.192,-51.6,-999.00,4.65,-999.0,no,yes,no,300234068342460,SVPGHI,AOML,MARIA_S._MERI,North
2020-09-10T03:00:00Z,1599706800,2020,3,0,254.125,254.125,63.203,-51.618,-999.00,4.66,-999.0,no,yes,no,300234068342460,SVPGHI,AOML,MARIA_S._MERI,North
2020-09-10T04:00:02Z,1599710403,2020,4,0,254.1667,254.1667,63.214,-51.638,-999.00,4.66,-999.0,no,yes,no,300234068342460,SVPGHI,AOML,MARIA_S._MERI,North
2020-09-10T04:59:57Z,1599713997,2020,5,0,254.2083,254.2083,63.224,-51.658,-999.00,4.68,-999.0,no,yes,no,300234068342460,SVPGHI,AOML,MARIA_S._MERI,North
2020-09-10T06:01:00Z,1599717660,2020,6,1,254.2507,254.2507,63.231,-51.677,-999.00,4.69,-999.0,no,yes,no,300234068342460,SVPGHI,AOML,MARIA_S._MERI,North
2020-09-10T07:01:03Z,1599721263,2020,7,1,254.2924,254.2924,63.236,-51.7,-999.00,4.67,-999.0,no,yes,no,300234068342460,SVPGHI,AOML,MARIA_S._MERI,North
2020-09-10T07:59:57Z,1599724797,2020,8,0,254.3333,254.3333,63.24,-51.724,-999.00,4.67,-999.0,no,yes,no,300234068342460,SVPGHI,AOML,MARIA_S._MERI,North
2020-09-10T09:00:00Z,1599728400,2020,9,0,254.375,254.375,63.248,-51.748,-999.00,4.65,-999.0,no,yes,no,300234068342460,SVPGHI,AOML,MARIA_S._MERI,North
2020-09-10T10:02:55Z,1599732176,2020,10,3,254.4187,254.4187,63.26,-51.766,-999.00,4.65,-999.0,no,yes,no,300234068342460,SVPGHI,AOML,MARIA_S._MERI,North
2020-09-10T11:00:57Z,1599735658,2020,11,1,254.459,254.459,63.269,-51.777,-999.00,4.65,-999.0,no,yes,no,300234068342460,SVPGHI,AOML,MARIA_S._MERI,North
2020-09-10T12:01:00Z,1599739260,2020,12,1,254.5007,254.5007,63.277,-51.786,-999.00,4.66,-999.0,no,yes,no,300234068342460,SVPGHI,AOML,MARIA_S._MERI,North
2020-09-10T13:01:03Z,1599742863,2020,13,1,254.5424,254.5424,63.283,-51.798,-999.00,4.66,-999.0,no,yes,no,300234068342460,SVPGHI,AOML,MARIA_S._MERI,North
2020-09-10T14:00:57Z,1599746458,2020,14,1,254.584,254.584,63.289,-51.809,-999.00,4.69,-999.0,no,yes,no,300234068342460,SVPGHI,AOML,MARIA_S._MERI,North
2020-09-10T15:03:01Z,1599750181,2020,15,3,254.6271,254.6271,63.291,-51.823,-999.00,4.79,-999.0,no,yes,no,300234068342460,SVPGHI,AOML,MARIA_S._MERI,North
2020-09-10T16:00:02Z,1599753603,2020,16,0,254.6667,254.6667,63.29,-51.836,-999.00,4.82,-999.0,no,yes,no,300234068342460,SVPGHI,AOML,MARIA_S._MERI,North
2020-09-10T16:59:57Z,1599757197,2020,17,0,254.7083,254.7083,63.29,-51.854,-999.00,4.83,-999.0,no,yes,no,300234068342460,SVPGHI,AOML,MARIA_S._MERI,North
2020-09-10T18:00:00Z,1599760800,2020,18,0,254.75,254.75,63.291,-51.876,-999.00,4.9,-999.0,no,yes,no,300234068342460,SVPGHI,AOML,MARIA_S._MERI,North
2020-09-10T19:03:56Z,1599764636,2020,19,4,254.7944,254.7944,63.293,-51.903,-999.00,4.89,-999.0,no,yes,no,300234068342460,SVPGHI,AOML,MARIA_S._MERI,North
2020-09-10T20:00:57Z,1599768058,2020,20,1,254.834,254.834,63.298,-51.927,-999.00,4.94,-999.0,no,yes,no,300234068342460,SVPGHI,AOML,MARIA_S._MERI,North
2020-09-10T21:03:01Z,1599771781,2020,21,3,254.8771,254.8771,63.305,-51.946,-999.00,4.92,-999.0,no,yes,no,300234068342460,SVPGHI,AOML,MARIA_S._MERI,North
2020-09-10T22:00:02Z,1599775203,2020,22,0,254.9167,254.9167,63.314,-51.959,-999.00,5.03,-999.0,no,yes,no,300234068342460,SVPGHI,AOML,MARIA_S._MERI,North
2020-09-10T22:59:57Z,1599778797,2020,23,0,254.9583,254.9583,63.327,-51.964,-999.00,5.03,-999.0,no,yes,no,300234068342460,SVPGHI,AOML,MARIA_S._MERI,North
2020-09-11T00:03:01Z,1599782581,2020,0,3,255.0021,255.0021,63.337,-51.963,-999.00,5.02,-999.0,no,yes,no,300234068342460,SVPGHI,AOML,MARIA_S._MERI,North
2020-09-11T01:00:02Z,1599786003,2020,1,0,255.0417,255.0417,63.345,-51.961,-999.00,5.0,-999.0,no,yes,no,300234068342460,SVPGHI,AOML,MARIA_S._MERI,North
2020-09-11T02:00:57Z,1599789658,2020,2,1,255.084,255.084,63.352,-51.96,-999.00,4.97,-999.0,no,yes,no,300234068342460,SVPGHI,AOML,MARIA_S._MERI,North
2020-09-11T03:01:00Z,1599793260,2020,3,1,255.1257,255.1257,63.359,-51.962,-999.00,4.95,-999.0,no,yes,no,300234068342460,SVPGHI,AOML,MARIA_S._MERI,North
2020-09-11T04:02:03Z,1599796924,2020,4,2,255.1681,255.1681,63.364,-51.962,-999.00,4.94,-999.0,no,yes,no,300234068342460,SVPGHI,AOML,MARIA_S._MERI,North
2020-09-11T04:59:57Z,1599800397,2020,5,0,255.2083,255.2083,63.369,-51.961,-999.00,4.93,-999.0,no,yes,no,300234068342460,SVPGHI,AOML,MARIA_S._MERI,North
2020-09-11T06:00:00Z,1599804000,2020,6,0,255.25,255.25,63.372,-51.959,-999.00,4.9,-999.0,no,yes,no,300234068342460,SVPGHI,AOML,MARIA_S._MERI,North
2020-09-11T07:00:02Z,1599807603,2020,7,0,255.2917,255.2917,63.375,-51.956,-999.00,4.9,-999.0,no,yes,no,300234068342460,SVPGHI,AOML,MARIA_S._MERI,North
2020-09-11T07:59:57Z,1599811197,2020,8,0,255.3333,255.3333,63.377,-51.956,-999.00,4.87,-999.0,no,yes,no,300234068342460,SVPGHI,AOML,MARIA_S._MERI,North
2020-09-11T09:00:00Z,1599814800,2020,9,0,255.375,255.375,63.379,-51.958,-999.00,4.87,-999.0,no,yes,no,300234068342460,SVPGHI,AOML,MARIA_S._MERI,North
2020-09-11T10:00:02Z,1599818403,2020,10,0,255.4167,255.4167,63.385,-51.963,-999.00,4.86,-999.0,no,yes,no,300234068342460,SVPGHI,AOML,MARIA_S._MERI,North
2020-09-11T10:59:57Z,1599821997,2020,11,0,255.4583,255.4583,63.392,-51.964,-999.00,4.86,-999.0,no,yes,no,300234068342460,SVPGHI,AOML,MARIA_S._MERI,North
2020-09-11T12:00:00Z,1599825600,2020,12,0,255.5,255.5,63.398,-51.962,-999.00,4.87,-999.0,no,yes,no,300234068342460,SVPGHI,AOML,MARIA_S._MERI,North
2020-09-11T13:59:57Z,1599832797,2020,14,0,255.5833,255.5833,63.413,-51.955,-999.00,4.93,-999.0,no,yes,no,300234068342460,SVPGHI,AOML,MARIA_S._MERI,North
2020-09-11T15:00:00Z,1599836400,2020,15,0,255.625,255.625,63.419,-51.95,-999.00,4.98,-999.0,no,yes,no,300234068342460,SVPGHI,AOML,MARIA_S._MERI,North
2020-09-11T16:00:02Z,1599840003,2020,16,0,255.6667,255.6667,63.423,-51.943,-999.00,4.98,-999.0,no,yes,no,300234068342460,SVPGHI,AOML,MARIA_S._MERI,North
2020-09-11T16:59:57Z,1599843597,2020,17,0,255.7083,255.7083,63.423,-51.936,-999.00,5.0,-999.0,no,yes,no,300234068342460,SVPGHI,AOML,MARIA_S._MERI,North
2020-09-11T18:00:00Z,1599847200,2020,18,0,255.75,255.75,63.423,-51.935,-999.00,5.01,-999.0,no,yes,no,300234068342460,SVPGHI,AOML,MARIA_S._MERI,North
2020-09-11T19:02:55Z,1599850976,2020,19,3,255.7937,255.7937,63.42,-51.94,-999.00,5.02,-999.0,no,yes,no,300234068342460,SVPGHI,AOML,MARIA_S._MERI,North
2020-09-11T21:00:00Z,1599858000,2020,21,0,255.875,255.875,63.418,-51.96,-999.00,5.0,-999.0,no,yes,no,300234068342460,SVPGHI,AOML,MARIA_S._MERI,North
2020-09-11T22:00:02Z,1599861603,2020,22,0,255.9167,255.9167,63.419,-51.974,-999.00,4.97,-999.0,no,yes,no,300234068342460,SVPGHI,AOML,MARIA_S._MERI,North
2020-09-11T22:59:57Z,1599865197,2020,23,0,255.9583,255.9583,63.424,-51.987,-999.00,4.94,-999.0,no,yes,no,300234068342460,SVPGHI,AOML,MARIA_S._MERI,North
2020-09-12T00:00:00Z,1599868800,2020,0,0,256.0,256.0,63.431,-51.998,-999.00,4.93,-999.0,no,yes,no,300234068342460,SVPGHI,AOML,MARIA_S._MERI,North
2020-09-12T01:00:02Z,1599872403,2020,1,0,256.0417,256.0417,63.441,-52.005,-999.00,4.93,-999.0,no,yes,no,300234068342460,SVPGHI,AOML,MARIA_S._MERI,North
2020-09-12T01:59:57Z,1599875997,2020,2,0,256.0833,256.0833,63.452,-52.006,-999.00,4.92,-999.0,no,yes,no,300234068342460,SVPGHI,AOML,MARIA_S._MERI,North
2020-09-12T03:00:00Z,1599879600,2020,3,0,256.125,256.125,63.462,-52.0,-999.00,4.9,-999.0,no,yes,no,300234068342460,SVPGHI,AOML,MARIA_S._MERI,North
2020-09-12T04:00:02Z,1599883203,2020,4,0,256.1667,256.1667,63.469,-51.991,-999.00,4.89,-999.0,no,yes,no,300234068342460,SVPGHI,AOML,MARIA_S._MERI,North
2020-09-12T04:59:57Z,1599886797,2020,5,0,256.2083,256.2083,63.471,-51.979,-999.00,4.87,-999.0,no,yes,no,300234068342460,SVPGHI,AOML,MARIA_S._MERI,North
2020-09-12T06:00:00Z,1599890400,2020,6,0,256.25,256.25,63.471,-51.975,-999.00,4.83,-999.0,no,yes,no,300234068342460,SVPGHI,AOML,MARIA_S._MERI,North
2020-09-12T07:00:02Z,1599894003,2020,7,0,256.2917,256.2917,63.472,-51.974,-999.00,4.81,-999.0,no,yes,no,300234068342460,SVPGHI,AOML,MARIA_S._MERI,North
2020-09-12T07:59:57Z,1599897597,2020,8,0,256.3333,256.3333,63.471,-51.977,-999.00,4.81,-999.0,no,yes,no,300234068342460,SVPGHI,AOML,MARIA_S._MERI,North
2020-09-12T09:01:00Z,1599901260,2020,9,1,256.3757,256.3757,63.47,-51.983,-999.00,4.8,-999.0,no,yes,no,300234068342460,SVPGHI,AOML,MARIA_S._MERI,North
2020-09-12T10:01:03Z,1599904863,2020,10,1,256.4174,256.4174,63.471,-51.988,-999.00,4.76,-999.0,no,yes,no,300234068342460,SVPGHI,AOML,MARIA_S._MERI,North